Погода в Тиганове

Россия / Брянская область     53°12′01″N   34°12′58″E
темп.,
°C
ветер,
м/с
пор.,
м/с
влажн.,
%
обл.,
%
осадки,
мм/ч
давл.,
гПа
погр.,
м
12 мая, ср
ср1200:00+10вюв489268 0.0 1023283
03:00+6вюв310910 0.0 1024279
06:00+6вюв26910 0.0 1025157
09:00+11всв47700 0.0 1024646
12:00+15всв455065 0.0 10221650
15:00+14в4664100 0.1 1020907
18:00+10всв3590100 1.8 1017259
21:00+9в3893100 2.7 1017306
13 мая, чт
чт1300:00+7в4109733 0.0 1016267
03:00+7в41096100 0.0 1015354
06:00+7вюв41096100 1.3 1014558
09:00+11юв588044 3.6 1014922
12:00+14юв795958 0.6 10131674
15:00+13ююв696498 1.4 10131568
18:00+13ююз576599 0.1 10131192
21:00+9ююв22835 0.1 101430
14 мая, пт
пт1400:00+7юв3390100 0.0 101453
03:00+7вюв3791100 0.0 1014122
06:00+9вюв3987100 0.0 1013221
09:00+15вюв5871100 0.0 1012479
12:00+20юв686542 0.3 10111245
15:00+20ююв587196 2.0 10101049
18:00+20ю477698 0.8 1008920
21:00+15ю349294 1.6 100962
15 мая, сб
сб1500:00+14ю229358 0.0 100938
03:00+12юв22930 0.0 100818
06:00+12юв359571 0.0 1008121
09:00+17ю4781100 0.4 1008469
12:00+20ююз57675 1.9 10081323
15:00+19ююз686817 3.0 10081160
18:00+18юз59734 0.8 10091139
21:00+13ююз37910 0.9 1010126
16 мая, вс
вс1600:00+11ююз369598 0.0 1011115
03:00+10юз24950 0.0 101270
06:00+10ююз23930 0.0 101382
09:00+16ююз35680 0.0 1013573
12:00+20юз355329 0.0 10131470
15:00+21юз455092 0.0 10131754
18:00+20з226077 0.0 1013687
21:00+15ссв1172100 0.0 101311